Regional Weather Roundup
Issued by NWS

Home | Current Version | Previous Version | Text Only | Print | Product List | Glossary On
Versions: 1 2 3 4 5 6 7 8 9 10 11 12 13 14 15 16 17 18 19 20 21 22 23 24 25 26 27 28 29 30 31 32 33 34 35 36 37 38 39 40 41 42 43 44 45 46 47 48 49 50
000
ASUS43 KLMK 150210
RWRKY
KENTUCKY REGIONAL WEATHER ROUNDUP
NATIONAL WEATHER SERVICE LOUISVILLE KY
1000 PM EDT SUN SEP 14 2014

NOTE "FAIR" INDICATES FEW OR NO CLOUDS BELOW 12,000 FEET
WITH NO SIGNIFICANT WEATHER AND/OR OBSTRUCTIONS TO VISIBILITY.

KYZ001>023-026-027-061>063-070>075-150300-
WESTERN AND SOUTH CENTRAL KENTUCKY

CITY           SKY/WX    TMP DP  RH WIND       PRES   REMARKS
PADUCAH        CLEAR     58  54  86 E3        30.19R
HENDERSON      CLEAR     54  48  82 CALM      30.21S
OWENSBORO      CLEAR     64  51  62 N3        30.21R
HOPKINSVILLE   CLEAR     62  54  74 N5        30.19R
BOWLING GREEN  CLEAR     65  52  62 CALM      30.20R
GLASGOW        CLEAR     58  53  85 CALM      30.20R
$$

KYZ024-025-028>034-038-045-046-053-150300-
NORTH CENTRAL KENTUCKY

CITY           SKY/WX    TMP DP  RH WIND       PRES   REMARKS
LOUISVILLE/SDF CLEAR     64  50  60 N5        30.20S
LOUISVILLE/LOU CLEAR     62  52  69 CALM      30.21S
FORT KNOX      CLEAR     55  52  88 NW3       30.20R
$$

KYZ035>037-039>044-047>052-055>060-089>105-150300-
NORTHEAST KENTUCKY

CITY           SKY/WX    TMP DP  RH WIND       PRES   REMARKS
LEXINGTON      CLEAR     59  52  77 CALM      30.22R
COVINGTON      CLEAR     57  50  77 CALM      30.22R
FRANKFORT      CLEAR     56  52  86 CALM      30.21R
$$

KYZ054-064>069-076>088-106>120-150300-
SOUTHEAST KENTUCKY

CITY           SKY/WX    TMP DP  RH WIND       PRES   REMARKS
JACKSON        CLEAR     61  53  75 CALM      30.22S
LONDON         CLEAR     63  57  81 CALM      30.21S
SOMERSET       NOT AVBL
MIDDLESBORO    CLEAR     63  63  99 CALM      30.22R
MONTICELLO     CLEAR     58  56  93 CALM      30.22R
$$



USA.gov is the U.S. government's official web portal to all federal, state and local government web resources and services.